Temp
9 11 10 11 12 12 11 11 12 14 14 16 16 16 16 15 14 15 14 12 11 11 9 11 11 12 11 12 11 11 11 10 10 9 9 8 8 7 6 6 6 5 5 4
9 10 10 11 12 12 12 12 12 12 13 16 16 14 15 14 14 14 14 14 13 11 10 10 11 11 11 11 11 11 10 10 9 8 8 8 7 6 6 5 5 4 4 3
9 10 9 10 10 12 13 13 13 11 14 15 15 14 14 15 15 14 14 14 13 12 11 11 12 12 11 11 11 10 10 9 9 8 8 7 6 6 5 4 4 3 3 3
7 10 10 13 13 13 13 14 14 14 14 14 15 14 13 13 14 14 13 13 13 12 12 12 12 12 12 11 10 10 9 9 8 8 7 6 5 5 4 3 3 2 2 2
8 10 11 14 13 12 11 12 13 13 13 14 14 13 13 12 12 12 11 11 11 13 14 13 13 12 12 10 10 9 9 8 8 7 7 6 5 4 3 2 2 3 2 1
8 10 11 13 13 14 13 12 13 12 12 13 12 12 10 12 11 10 10 10 10 12 14 13 13 12 11 9 9 9 9 8 8 7 6 5 5 4 3 2 2 2 1 1
8 9 10 13 13 14 13 12 13 13 13 13 11 10 11 11 10 10 9 9 10 11 12 14 13 12 10 9 9 10 9 8 7 7 6 5 4 3 2 1 1 1 1 1
9 8 9 11 13 13 12 12 14 14 13 13 12 13 12 11 10 8 8 8 8 9 8 10 11 11 9 9 10 9 8 8 7 6 5 4 3 2 1 1 0 0 -0 -0
9 9 9 9 10 9 9 11 13 13 12 13 13 12 12 10 10 8 8 8 7 7 8 9 10 11 10 9 9 8 8 7 6 5 4 4 3 2 0 0 -0 -0 -1 -0
8 10 10 7 8 8 8 9 9 13 13 12 12 12 10 9 8 8 8 8 7 7 7 7 9 9 10 8 8 8 7 6 5 4 3 3 2 1 0 0 -1 -1 -1 -0
6 7 8 8 8 7 8 8 8 9 12 12 12 11 9 8 8 8 7 7 7 7 6 6 7 8 7 7 7 6 6 5 4 3 2 2 1 1 0 0 0 -0 -0 0
5 6 6 7 7 8 8 8 8 8 10 11 11 9 8 8 8 8 7 7 7 6 6 6 6 6 6 6 6 6 4 3 3 3 2 2 1 0 0 0 0 -0 -0 0
5 4 5 5 6 8 7 7 8 7 9 9 8 8 8 6 7 7 6 6 6 6 6 6 6 5 5 5 5 5 4 4 3 3 2 1 0 -0 -0 -0 -0 -0 -0 -0
5 5 4 6 6 7 7 7 7 7 7 8 8 8 7 6 6 5 5 5 6 6 6 5 5 5 5 5 4 4 4 4 3 3 2 1 1 0 -0 -1 -1 -0 -0 -0
3 3 3 4 5 6 7 7 6 6 6 6 7 7 7 5 4 4 5 5 5 5 4 4 4 3 4 4 4 3 3 3 3 2 2 2 1 0 -0 -1 -1 -0 -0 -0
4 3 3 4 4 5 6 6 6 7 6 5 5 5 5 5 4 4 4 4 4 2 2 2 2 2 2 2 2 2 2 2 2 2 1 1 1 0 -0 -1 -1 -1 -1 -0
3 3 3 3 4 4 6 6 6 6 5 4 4 4 4 4 3 2 2 2 2 1 0 0 0 1 1 1 1 1 1 1 1 1 1 1 1 0 0 -0 -0 -1 -0 -0
4 3 3 3 3 4 5 5 4 4 4 4 4 3 3 2 1 1 1 1 0 -0 -0 -1 -1 -1 -0 0 0 1 1 1 1 1 1 1 0 0 0 -0 -0 -0 -0 -0
4 3 3 2 2 4 3 3 2 2 2 2 3 2 1 1 1 1 0 0 -1 -1 -2 -1 -2 -1 -1 -1 -1 -1 -0 -0 0 0 0 0 -0 -0 -0 -0 -1 -1 -1 -1
3 2 2 1 1 1 1 0 0 -0 -0 -0 0 1 0 -0 0 0 -0 -2 -2 -2 -2 -2 -2 -2 -2 -2 -2 -2 -2 -1 -1 -1 -1 -1 -1 -1 -1 -1 -1 -1 -1 -1
2 1 1 1 0 -0 -0 -0 0 0 1 0 0 -0 -0 -1 -1 -0 -1 -2 -2 -2 -2 -2 -2 -3 -3 -3 -3 -4 -3 -3 -3 -2 -2 -2 -2 -2 -1 -1 -1 -1 -1 -1
1 1 1 0 -0 1 1 1 1 0 0 -0 -0 -0 -1 -1 -1 -1 -1 -1 -2 -3 -2 -2 -3 -3 -3 -3 -3 -4 -4 -4 -4 -4 -3 -3 -3 -3 -3 -3 -3 -2 -2 -2
-1 -0 0 0 0 0 1 1 0 -0 -0 -0 -1 -1 -1 -1 -1 -2 -2 -2 -2 -2 -2 -3 -3 -4 -4 -3 -3 -4 -4 -4 -4 -4 -5 -5 -4 -4 -4 -4 -4 -4 -3 -3
-1 -1 -0 0 0 0 0 1 0 0 -0 -1 -1 -1 -1 -1 -1 -2 -2 -2 -2 -2 -2 -3 -3 -4 -3 -3 -3 -4 -4 -4 -4 -5 -5 -5 -5 -5 -5 -5 -6 -6 -5 -5
-0 -0 -1 -1 -1 -1 0 1 -0 -0 -0 -0 -1 -1 -1 -1 -1 -1 -2 -2 -2 -3 -3 -3 -3 -3 -3 -3 -4 -4 -4 -5 -5 -6 -6 -6 -6 -6 -6 -6 -6 -7 -7 -6
0 -0 -0 -0 -0 -0 -0 -1 -2 -1 -1 -1 -0 -0 -0 -1 -1 -2 -2 -2 -2 -2 -3 -3 -3 -3 -3 -4 -4 -4 -5 -5 -5 -6 -7 -7 -7 -7 -8 -8 -8 -8 -8 -8
-1 -1 -1 -2 -0 -0 -0 -1 -2 -1 -1 -1 -1 -0 -0 -1 -1 -2 -2 -2 -2 -2 -3 -3 -3 -3 -3 -4 -4 -5 -5 -6 -6 -7 -7 -8 -8 -8 -8 -8 -9 -9 -9 -9
Height
780 772 776 772 767 770 779 776 778 767 767 756 754 756 757 759 758 759 760 761 761 761 762 763 768 771 773 774 776 779 781 782 786 792 797 798 797 801 804 805 805 805 805 806
779 769 772 767 762 766 766 770 769 767 762 750 748 750 752 755 755 756 754 755 755 756 756 758 760 765 768 771 773 776 778 781 786 791 794 795 797 799 801 802 804 804 804 805
776 765 771 772 767 758 753 753 758 766 749 748 750 752 753 750 750 751 751 751 751 752 752 752 754 759 763 766 771 774 777 781 785 788 791 794 795 797 799 801 802 803 804 804
791 771 769 746 740 741 745 742 745 748 748 746 746 747 747 746 747 747 747 747 746 745 746 747 749 754 758 762 767 771 775 779 782 785 789 792 794 796 798 799 801 801 802 802
788 769 763 742 743 746 751 746 742 745 744 742 743 745 746 748 747 747 747 746 744 741 740 741 744 748 753 759 764 769 773 776 780 784 787 789 792 794 796 797 797 799 800 801
785 772 762 748 743 739 740 753 741 740 742 742 744 752 753 745 745 745 745 743 741 737 735 736 740 743 749 754 760 765 770 774 779 782 784 787 789 791 793 795 796 797 798 800
786 775 764 745 743 738 748 757 741 740 741 741 747 751 747 744 745 745 743 741 739 736 734 733 736 741 747 752 756 761 767 773 777 779 782 786 787 789 791 792 794 795 796 797
779 783 777 751 746 747 751 744 740 740 741 742 744 744 743 744 745 745 744 741 738 736 735 733 735 739 744 750 755 761 766 771 774 777 780 782 784 786 788 790 791 793 794 795
771 768 761 762 763 759 752 748 743 742 743 743 744 744 743 745 745 746 745 743 741 740 738 736 738 741 745 752 757 761 764 768 771 774 777 779 781 783 786 788 789 790 791 792
773 761 762 768 765 760 756 753 750 743 741 742 743 743 745 746 747 747 746 745 744 742 742 742 744 747 749 752 756 759 762 766 769 772 774 777 779 781 783 784 785 786 787 788
778 769 762 763 763 762 758 754 750 747 743 741 741 743 745 747 747 748 748 747 746 745 745 746 748 749 751 754 757 759 762 765 767 770 773 774 776 778 779 780 781 782 782 784
781 775 773 767 762 760 758 757 753 750 745 740 741 743 745 747 747 748 749 750 750 749 749 750 751 752 754 756 758 760 762 765 767 769 770 771 774 775 776 776 777 778 780 781
775 773 771 767 763 760 758 759 754 751 744 742 743 744 746 747 749 750 751 752 752 751 752 753 754 755 756 757 758 760 761 762 764 767 768 768 770 771 772 773 773 774 776 778
769 769 768 763 761 759 757 757 755 752 749 745 745 745 747 749 751 752 753 754 753 753 753 754 755 756 756 756 757 758 759 760 762 763 765 766 767 768 768 769 770 770 771 773
769 768 769 763 759 756 753 752 753 751 750 748 747 747 747 750 753 754 754 754 755 755 755 755 755 756 756 756 756 757 757 759 760 761 762 763 764 764 765 765 765 765 766 768
767 766 765 764 760 756 752 751 750 748 749 750 749 749 750 752 755 755 755 756 756 757 757 757 756 756 755 755 755 755 755 756 757 758 759 759 759 759 760 760 761 761 761 762
767 766 762 762 759 757 753 751 748 746 748 750 751 752 752 754 755 756 757 757 757 758 758 758 757 756 755 754 754 753 753 754 754 755 755 755 756 756 756 756 755 756 755 756
765 763 762 759 756 753 752 751 751 751 751 752 753 753 754 755 756 757 757 758 758 758 758 758 757 756 754 753 752 752 751 751 752 751 752 752 752 752 752 752 751 751 751 751
763 762 760 758 756 753 753 753 754 754 754 754 754 755 756 756 757 758 758 758 758 758 759 758 757 755 754 753 753 751 750 749 749 749 749 749 748 748 748 748 747 747 746 745
761 760 760 759 757 755 754 754 754 755 755 754 756 757 757 757 757 757 758 758 759 759 759 758 757 756 754 753 752 751 749 748 748 747 746 746 745 745 744 744 743 742 742 741
760 760 760 759 758 758 755 754 755 755 756 756 756 756 757 757 757 757 757 758 759 758 758 757 756 755 754 752 751 750 750 749 748 747 746 745 744 742 741 740 739 739 738 736
759 760 760 759 759 758 757 755 755 755 755 755 755 755 756 756 756 756 756 757 757 757 756 756 755 755 753 752 751 750 750 749 748 747 746 745 744 742 740 738 737 736 734 733
762 761 761 761 760 757 756 756 754 754 754 754 754 754 755 755 755 755 756 756 756 755 755 754 754 754 753 752 751 750 749 749 747 747 746 744 743 741 740 738 736 734 732 730
760 761 760 759 758 757 756 755 754 753 753 752 752 752 753 753 754 754 754 754 754 754 753 753 753 753 751 751 750 749 748 747 746 745 744 742 740 738 736 735 733 731 729 727
760 759 759 758 757 756 754 753 752 751 751 750 750 750 750 751 752 752 752 752 752 752 752 752 752 751 750 749 748 747 746 745 744 743 741 739 737 735 734 732 730 727 725 723
758 758 757 756 755 753 752 751 750 750 748 747 747 747 748 749 749 749 749 749 749 749 749 749 749 748 748 747 746 745 744 742 741 739 738 736 734 732 730 728 725 723 720 717
755 754 753 752 751 750 749 748 747 746 746 745 744 745 745 745 746 746 746 746 746 746 746 746 746 746 745 744 743 742 741 739 738 736 734 732 730 727 725 723 720 718 715 713
Wind_Speed
8 11 6 3 6 13 13 9 9 6 13 13 8 4 4 5 6 3 6 7 8 8 7 16 17 18 18 22 22 23 21 19 18 17 17 15 12 12 11 8 6 5 4 4
5 10 8 8 12 13 17 16 14 8 9 5 7 6 5 5 7 8 8 9 10 10 10 16 22 22 21 22 25 23 21 20 20 20 19 15 14 13 10 8 8 7 6 5
4 1 8 4 13 14 11 15 15 15 21 7 13 7 7 6 4 5 5 6 7 8 13 20 27 29 29 26 24 23 23 23 23 21 19 17 14 13 11 8 7 7 7 6
4 2 0 5 2 16 18 13 16 14 7 11 12 9 8 4 4 6 5 6 7 7 15 24 29 32 31 29 28 25 24 24 23 22 20 18 16 13 11 9 8 7 7 7
1 2 6 4 3 3 7 8 5 7 10 8 3 3 1 2 2 1 3 5 8 14 14 24 30 33 33 30 29 27 26 25 25 23 21 19 17 14 11 8 8 8 9 9
3 1 2 3 3 3 4 3 5 5 5 5 3 1 4 3 4 4 7 9 11 16 10 19 29 34 32 31 30 28 27 25 23 22 21 20 16 14 11 11 10 10 10 10
5 3 5 4 3 2 2 3 3 3 3 2 1 4 3 3 4 5 6 10 10 7 3 7 26 32 27 28 29 28 23 22 22 20 19 18 15 12 12 11 11 12 12 12
3 2 5 6 4 2 3 4 1 1 2 2 1 1 1 2 3 5 6 8 7 6 8 3 22 32 28 27 26 22 21 22 21 19 18 17 15 12 12 12 14 15 14 13
3 3 1 10 12 6 5 3 4 3 2 2 1 0 2 1 3 3 5 5 6 8 12 14 13 24 25 20 20 21 21 21 19 18 16 15 13 12 13 15 16 16 16 15
3 2 2 1 8 9 6 5 7 2 3 2 2 3 4 3 3 3 4 4 4 6 8 10 9 9 12 16 18 19 20 19 18 18 17 15 14 14 15 16 17 16 16 17
4 7 7 4 6 7 11 10 11 9 3 2 3 4 5 3 4 4 4 7 5 6 7 8 8 9 10 12 14 15 16 17 19 18 17 15 15 15 17 18 19 19 20 20
4 1 3 5 7 6 10 12 11 9 5 2 3 5 5 5 6 7 6 6 8 7 7 6 6 7 8 9 12 14 15 17 19 19 17 15 16 14 14 16 15 15 15 17
2 4 5 7 8 2 4 12 12 9 5 4 4 7 6 4 7 9 8 7 6 6 5 5 5 4 5 7 10 12 14 15 17 18 17 16 17 16 14 14 14 14 16 15
7 8 7 5 4 6 4 6 16 8 5 4 7 10 11 10 9 10 8 6 6 6 6 4 3 1 3 7 10 12 12 13 17 18 17 16 16 15 14 15 15 18 18 19
9 3 7 8 7 6 7 3 9 5 2 3 7 7 10 9 7 7 6 5 8 9 8 7 6 7 2 3 7 9 11 13 14 16 16 16 15 14 14 16 17 17 16 16
10 7 7 7 6 6 5 6 6 5 4 3 6 8 9 9 9 8 7 6 5 7 7 6 6 7 6 4 5 7 8 10 12 14 14 15 15 15 15 16 17 18 19 20
8 7 6 6 5 6 5 5 3 3 5 6 6 6 7 9 8 6 6 5 6 8 7 7 8 7 7 6 4 5 6 7 9 12 14 16 17 18 18 17 18 19 21 20
7 3 4 4 6 6 4 2 7 6 4 5 5 6 6 6 5 4 4 5 7 7 9 7 7 6 7 7 8 5 6 7 8 9 12 14 15 17 18 19 20 20 21 21
5 4 5 6 8 3 5 6 8 7 9 8 5 5 6 6 4 4 4 6 6 4 7 7 8 9 8 8 9 7 6 6 7 9 9 10 11 14 17 18 19 20 20 20
2 2 3 3 4 4 4 5 5 5 5 4 2 3 4 4 3 3 4 8 6 5 5 5 5 8 8 8 7 7 7 7 7 6 7 8 10 12 14 16 17 18 19 19
3 2 2 2 3 2 4 4 4 4 3 3 4 3 3 2 2 3 5 4 3 4 3 3 6 8 9 8 8 6 7 7 8 8 9 9 9 9 10 12 14 15 17 18
2 1 1 1 2 1 0 2 2 1 2 2 2 2 3 3 3 3 4 3 2 2 3 3 5 7 7 6 6 6 6 6 6 7 8 9 9 10 11 11 11 12 14 15
2 1 1 2 4 3 3 2 0 0 1 1 1 1 1 1 1 3 3 2 1 1 2 2 4 5 5 5 5 5 5 5 5 5 6 7 9 10 11 12 13 14 15 14
4 5 6 5 6 6 5 3 3 3 4 3 3 3 3 3 3 4 3 2 2 2 2 2 3 3 4 5 6 6 7 8 8 9 10 10 10 12 13 14 15 15 16 15
9 10 11 11 9 8 8 8 7 6 6 6 7 7 6 6 7 5 5 4 4 3 2 2 2 3 4 5 6 7 8 9 9 11 13 13 15 15 16 16 16 17 17 19
9 10 12 14 14 16 15 12 11 11 9 9 9 8 8 8 9 9 7 6 5 4 3 3 2 3 4 5 6 8 9 11 12 13 13 15 16 17 17 18 18 19 20 19
10 10 10 12 12 12 13 14 13 15 12 11 13 11 10 9 10 10 9 8 7 6 5 4 4 4 5 6 8 9 11 12 13 14 15 15 16 16 17 17 18 20 21 22
Wind_Direction
267 259 240 209 201 201 213 216 204 226 231 242 239 189 184 236 275 249 201 192 194 200 195 193 198 204 197 188 185 182 179 177 180 184 191 189 176 180 187 195 207 214 229 243
262 222 217 228 200 199 219 220 246 259 257 209 266 319 293 247 230 228 220 207 208 199 194 194 197 199 193 189 183 185 186 186 185 186 187 189 187 191 200 204 209 214 219 229
283 219 156 225 218 219 218 221 218 229 242 236 266 266 263 265 273 272 261 236 236 210 201 196 199 199 198 193 190 191 191 189 187 187 188 190 193 201 205 209 210 209 212 223
281 354 282 254 185 214 220 240 223 234 248 242 244 247 247 260 232 242 261 278 274 251 219 205 198 197 198 196 195 197 198 195 194 193 193 195 198 203 211 213 208 207 211 219
264 302 293 323 327 150 172 258 219 218 239 253 262 143 207 104 89 352 275 268 296 285 256 216 199 192 192 191 193 196 200 199 197 198 196 197 199 201 212 214 210 220 218 210
333 214 250 243 280 305 110 308 326 225 219 178 138 209 260 332 340 326 317 313 306 304 262 215 200 194 184 184 191 197 203 203 201 202 202 201 206 207 214 218 224 222 222 219
252 276 283 307 301 304 103 234 352 64 80 79 143 203 239 311 339 336 323 320 314 310 255 200 195 186 176 184 191 201 200 201 200 204 208 209 205 214 218 217 222 221 223 221
198 241 259 351 352 9 242 295 45 118 70 91 157 261 272 37 21 3 347 354 8 66 48 155 186 181 175 185 196 189 189 192 195 199 201 204 206 214 212 216 221 224 225 225
220 236 49 351 346 349 359 320 339 125 186 132 149 130 161 83 39 14 12 35 55 79 75 73 156 182 172 175 176 178 182 185 190 194 199 202 207 223 215 219 225 225 223 226
359 123 16 284 332 357 350 342 321 309 122 159 186 143 112 104 78 45 25 28 60 91 88 86 106 143 165 167 176 178 178 183 191 196 195 206 218 224 222 225 227 226 225 230
278 312 329 155 34 356 353 354 350 338 302 157 138 141 130 113 105 93 61 44 66 81 99 106 117 136 159 172 181 182 189 192 195 201 206 211 226 228 227 236 239 231 233 233
238 334 279 286 334 332 358 341 333 324 296 72 123 135 128 117 118 120 99 85 80 90 107 113 127 140 160 179 188 187 191 200 206 208 211 214 222 232 238 248 244 240 242 242
256 301 259 275 282 359 16 330 330 326 297 113 72 121 109 102 95 97 92 94 97 114 126 135 141 158 174 190 198 203 208 212 214 216 216 219 224 232 241 242 240 237 234 229
322 348 310 266 264 302 232 299 310 300 334 98 111 115 117 107 106 96 75 68 84 98 99 105 107 82 251 231 225 224 225 226 225 225 227 229 233 238 242 241 235 236 236 234
311 283 267 274 291 294 292 324 296 265 265 75 87 100 113 105 96 87 73 78 93 85 72 75 78 41 11 293 252 240 235 234 236 238 239 241 243 246 248 249 247 252 255 242
307 307 308 314 316 320 327 273 267 221 162 105 97 94 104 117 119 98 73 65 91 69 51 55 38 8 354 325 286 269 258 256 252 247 243 241 242 245 250 251 251 251 251 254
309 317 328 313 316 312 314 309 322 162 118 117 122 121 121 126 107 84 62 64 101 87 66 39 17 14 13 359 337 304 281 271 258 253 250 251 252 253 255 257 254 254 259 266
289 315 321 293 304 313 298 61 60 65 77 114 118 113 99 103 103 88 70 99 120 85 48 27 11 11 14 7 1 339 299 285 281 272 271 267 267 268 265 265 263 263 269 275
321 331 343 352 340 10 70 73 73 61 49 47 71 88 99 94 90 83 104 97 87 80 23 18 17 26 21 22 4 355 351 323 301 293 289 285 279 273 273 275 272 273 277 276
336 355 354 2 8 34 79 69 69 71 56 57 72 116 95 75 67 91 114 95 70 42 18 24 22 20 20 14 359 11 12 1 350 333 318 301 298 297 293 286 284 283 283 285
352 346 354 17 40 49 85 93 119 120 127 133 139 110 110 87 67 93 139 147 52 25 33 30 22 22 22 9 17 22 16 10 4 3 358 351 337 324 316 309 304 299 294 292
22 39 93 147 190 221 33 85 87 114 129 125 119 132 139 113 102 106 95 125 82 16 25 30 23 22 15 12 17 29 23 14 5 357 358 352 342 340 334 325 316 309 309 305
263 242 278 347 329 309 303 311 26 185 202 175 188 197 185 208 186 162 183 192 322 351 0 16 15 12 5 15 24 30 24 12 6 349 342 341 335 333 328 322 318 316 315 313
243 268 280 309 322 317 306 302 287 272 266 260 249 239 239 238 236 216 205 237 266 302 325 347 347 356 2 13 14 13 9 1 356 349 341 336 330 328 322 318 319 317 314 313
244 259 272 283 285 277 288 299 286 280 277 279 273 258 248 242 236 220 233 251 252 259 272 285 309 331 355 4 3 1 357 350 348 332 331 333 331 328 324 320 315 316 314 309
267 266 270 274 277 288 290 286 279 289 286 284 284 277 266 255 249 246 247 252 256 262 269 283 303 328 338 344 345 344 342 339 336 335 329 324 324 323 322 321 319 319 318 314
278 273 270 281 284 286 285 281 276 278 279 272 274 281 272 259 252 252 252 255 259 262 266 274 288 308 321 329 334 333 332 332 331 327 322 323 324 325 324 322 320 318 316 312